Curacao, Netherlands

6:58 AM AST on March 26, 2017 (GMT -0400)
Willemstad-Hato International

Weather History for TNCC - November, 2013

Change the Weather History Date:

Thursday, November 7, 2013

  Actual Average Record
Temperature  
Mean Temperature 82 °F -  
Max Temperature 87 °F 86 °F 92 °F (2016)
Min Temperature 77 °F 79 °F 75 °F (2003)
Cooling Degree Days 17    
Growing Degree Days 32 (Base 50)    
Moisture  
Dew Point 74 °F    
Average Humidity 77    
Maximum Humidity 89    
Minimum Humidity 60    
Precipitation  
Precipitation 0.08 in - - ()
Sea Level Pressure  
Sea Level Pressure 29.84 in    
Wind  
Wind Speed 7 mph ()    
Max Wind Speed 12 mph    
Max Gust Speed -    
Visibility 7.1 miles    
Events      
Averages and records for this station are not official NWS values.
T = Trace of Precipitation, MM = Missing Value Source: Averaged Metar Reports

Daily Weather History Graph

Daily Weather History Graph

Search for Another Location

Airport or City:

Trip Planner

Search our weather history database for the weather conditions in past years. The results will help you decide how hot, cold, wet, or windy it might be!

Date:

Astronomy

Nov. 07, 2013 Rise Set
Actual Time 6:30 AM AST 6:08 PM AST
Civil Twilight 6:08 AM AST 6:30 PM AST
Nautical Twilight 5:43 AM AST 6:55 PM AST
Astronomical Twilight 5:17 AM AST 7:21 PM AST
Moon 10:27 AM AST (11/7) 10:22 PM AST (11/7)
Length of Visible Light 12h 21m
Length of Day
11h 37m
Waxing Crescent, 22% of the Moon is Illuminated
Nov 7
Waxing Crescent
Nov 10
First Quarter
Nov 17
Full
Nov 25
Last Quarter
Dec 2
New

Hourly Weather History & Observations

Time (AST) Temp. Heat Index Dew Point Humidity Pressure Visibility Wind Dir Wind Speed Gust Speed Precip Events Conditions
12:00 AM 80.6 °F 85.4 °F 73.4 °F 79% 29.86 in 6.2 mi East 9.2 mph - N/A   Partly Cloudy
1:00 AM 80.6 °F 84.6 °F 71.6 °F 74% 29.83 in 6.2 mi East 9.2 mph - N/A   Partly Cloudy
2:00 AM 79 °F - 71 °F 72% 29.83 in 31 mi ESE 5.8 mph - -   Scattered Clouds
2:00 AM 78.8 °F - 71.6 °F 78% 29.83 in 6.2 mi ESE 6.9 mph - N/A   Partly Cloudy
3:00 AM 80.6 °F 85.4 °F 73.4 °F 79% 29.80 in 6.2 mi East 10.4 mph - N/A   Partly Cloudy
4:00 AM 78.8 °F - 71.6 °F 78% 29.89 in 6.2 mi SE 5.8 mph - N/A   Partly Cloudy
5:00 AM 78.8 °F - 71.6 °F 78% 29.80 in 6.2 mi SE 5.8 mph - N/A   Partly Cloudy
6:00 AM 77.0 °F - 71.6 °F 83% 29.83 in 6.2 mi SE 5.8 mph - N/A   Partly Cloudy
7:00 AM 78.8 °F - 71.6 °F 78% 29.83 in 6.2 mi ESE 8.1 mph - N/A   Partly Cloudy
8:00 AM 82 °F - 73 °F 68% 29.86 in 37 mi ESE 9.2 mph - -   Partly Cloudy
8:00 AM 84.2 °F 90.9 °F 73.4 °F 70% 29.86 in 6.2 mi East 11.5 mph - N/A   Scattered Clouds
9:00 AM 86.0 °F 95.1 °F 75.2 °F 70% 29.89 in 6.2 mi East 9.2 mph - N/A   Scattered Clouds
10:00 AM 86.0 °F 95.1 °F 75.2 °F 70% 29.89 in 6.2 mi East 10.4 mph - N/A   Scattered Clouds
11:00 AM 87 °F - 75 °F 60% 29.89 in 37 mi East 11.5 mph - -   Partly Cloudy
11:00 AM 86.0 °F 95.1 °F 75.2 °F 70% 29.89 in 6.2 mi East 10.4 mph - N/A   Scattered Clouds
12:00 PM 86.0 °F 95.1 °F 75.2 °F 70% 29.86 in 6.2 mi East 11.5 mph - N/A   Scattered Clouds
1:00 PM 87.8 °F 99.7 °F 77.0 °F 70% 29.83 in 6.2 mi East 11.5 mph - N/A   Scattered Clouds
2:00 PM 85 °F - 75 °F 65% 29.81 in 25 mi East 11.5 mph - -   Partly Cloudy
2:00 PM 86.0 °F 95.1 °F 75.2 °F 70% 29.80 in 6.2 mi East 11.5 mph - N/A   Scattered Clouds
3:00 PM 86.0 °F 96.9 °F 77.0 °F 74% 29.77 in 6.2 mi East 11.5 mph - N/A   Scattered Clouds
4:00 PM 84.2 °F 94.1 °F 77.0 °F 79% 29.77 in 6.2 mi East 9.2 mph - N/A   Scattered Clouds
5:00 PM 79 °F - 72 °F 73% 29.83 in 12 mi South 8.1 mph - -   Mostly Cloudy
5:00 PM 78.8 °F - 71.6 °F 78% - 6.2 mi South 10.4 mph - N/A   Mostly Cloudy
6:00 PM 77.0 °F - 73.4 °F 89% 29.80 in 6.2 mi Variable 1.2 mph - N/A   Partly Cloudy
7:00 PM 78.8 °F - 73.4 °F 83% 29.83 in 6.2 mi Variable 2.3 mph - N/A   Partly Cloudy
8:00 PM 79 °F - 74 °F 81% 29.85 in 16 mi South 3.5 mph - -   Partly Cloudy
8:00 PM 78.8 °F - 73.4 °F 83% 29.83 in 6.2 mi SE 3.5 mph - N/A   Partly Cloudy
9:00 PM 78.8 °F - 75.2 °F 89% 29.89 in 6.2 mi SSE 2.3 mph - N/A   Scattered Clouds
10:00 PM 78.8 °F - 75.2 °F 89% 29.89 in 6.2 mi ESE 6.9 mph - N/A   Scattered Clouds
11:00 PM 79 °F - 75 °F 83% 29.88 in 16 mi ESE 4.6 mph - -   Partly Cloudy
11:00 PM 78.8 °F - 75.2 °F 89% 29.89 in 6.2 mi ESE 5.8 mph - N/A   Scattered Clouds